Location: Bremen
(53.0793°N, 8.8017°E)
Time: 22:36:35
(UTC+02:00)

Vanguard 2 Rocket - Pass Details

Date: 15 April 2024
Orbit: 556 x 3304 km, 32.9° (Epoch: 20 May)

Event Time Altitude Azimuth Distance (km) Brightness Sun altitude
Rises 01:32:15 0° 238° (WSW) 7,156 11.2 -27.0°
Reaches altitude 10° 01:37:34 10° 231° (SW) 6,238 10.8 -27.0°
Enters shadow 01:39:36 14° 227° (SW) 5,902 10.6 -27.0°
Exits shadow 01:53:15 36° 181° (S) 4,226 9.6 -26.8°
Maximum altitude 01:54:28 36° 174° (S) 4,167 9.6 -26.7°
Drops below altitude 10° 02:08:06 10° 116° (ESE) 5,068 10.5 -26.4°
Sets 02:11:51 0° 108° (ESE) 5,732 10.9 -26.3°
